Location: *
(57.8420°S, 159.8600°W)
Time: 12:15:08
(UTC+00:00)

Cosmos 2315 Rocket - Pass Details

Date: 18 May 2021
Orbit: 965 x 1003 km, 82.9° (Epoch: 22 June)

Event Time Altitude Azimuth Distance (km) Brightness Sun altitude
Rises 04:55:23 0° 193° (SSW) 3,717 7.1 -19.1°
Reaches altitude 10° 04:57:57 10° 189° (S) 2,769 6.4 -19.4°
Maximum altitude 05:04:15 61° 108° (ESE) 1,127 4.0 -20.2°
Drops below altitude 10° 05:10:33 10° 28° (NNE) 2,768 6.1 -21.1°
Sets 05:13:07 0° 24° (NNE) 3,715 6.8 -21.4°
